カタログに戻る

STARLINK-5243

運用中通信VLEO
NORAD 54167·PAYLOAD·🇺🇸 United States

打ち上げ Oct 28, 2022 から Vandenberg Space Force Base

Loading…

次のパス (今後24時間)

TLE

最新Source: CelesTrak SupGP

元期: Sep 14, 2026, 21:04 UTC

1 54167C 22141L   26257.87826389  .00722940  00000+0  31055-1 0  2571
2 54167  53.1608 243.4706 0001243  94.0400  83.4020 15.21798863    19

AllMySatでSTARLINK-5243をリアルタイム追跡

Download on the App Store